[[{"header":{"parameterUnit":"m.s-1","parameterCategory":1,"la1":30.2991,"la2":30.254,"lo1":-89.0895,"lo2":-89.0444,"dy":0.0017,"dx":0.0017,"nx":28,"ny":28,"refTime":"2023-04-30T15:00:00:Z","depth":0,"parameterNumber":2,"parameterNumberName":"U-component_of_WINDS"},"data":[0,0,0,0,0,0,0,0,0,0,0,0,0,0,0,0,0,0,0,0,0,0,0,0,0,0,0,0,0,0,0,0,0,0,0,0,0,0,0,0,0,0,0,0,0,0,0,0,0,0,0,0,0,0,0,0,0,0,3.0268,3.0268,0,3.0264,3.0264,3.0264,3.0302,3.0303,3.0304,3.0305,3.0301,3.03,3.0299,0,0,0,0,0,0,0,0,0,0,0,0,0,3.0314,3.0312,3.0268,3.0268,3.0268,3.0264,3.0264,3.0264,3.0302,3.0303,3.0305,3.0306,3.0302,3.0301,3.0299,0,0,0,0,0,0,0,0,0,0,0,0,0,3.03,3.0312,3.0268,3.0287,3.0288,3.0264,3.0264,3.0264,3.0302,3.0303,3.0305,3.0306,3.0302,3.0301,3.0299,3.0257,0,0,3.0294,3.0293,0,0,0,0,0,0,0,0,3.0301,3.0298,3.0284,3.0285,3.0287,3.0285,3.0278,3.0262,3.0301,3.0297,3.0305,3.0307,3.0295,3.0294,3.029,3.0257,3.0257,3.0294,3.0293,3.0292,3.0292,0,0,0,0,0,0,0,3.0302,3.0299,3.0267,3.0284,3.0286,3.0296,3.0296,3.0275,3.0287,3.0297,3.03,3.0299,3.0296,3.0291,3.029,3.0257,3.0294,3.0292,3.0291,3.0291,3.0194,3.0192,0,0,0,0,0,0,3.03,3.0299,3.0267,3.0266,3.0298,3.0294,3.0294,3.0284,3.0287,3.0289,3.0297,3.0301,3.0293,3.0292,3.029,3.0243,3.0292,3.0291,3.029,3.0195,3.0193,3.0192,0,0,0,0,0,0,3.0301,3.0296,3.0267,3.0284,3.0281,3.0292,3.028,3.0283,3.0278,3.0287,3.029,3.029,3.0294,3.0292,3.0266,3.0243,3.029,3.0288,3.0197,3.0195,3.0193,3.0147,0,0,0,0,0,0,3.0302,3.0296,3.0279,3.0283,3.028,3.0241,3.0279,3.0282,3.0275,3.0279,3.0281,3.0283,3.0295,3.0268,3.0264,3.0242,3.0287,3.0199,3.0196,3.0193,3.0151,3.0144,3.0138,0,0,0,0,0,3.0303,3.0266,3.0278,3.0274,3.0258,3.024,3.0238,3.0253,3.0273,3.0257,3.0264,3.0283,3.0247,3.0265,3.0261,3.0238,3.0201,3.0197,3.0193,3.0154,3.0145,3.0138,0,0,0,0,0,0,3.0258,3.0267,3.028,3.0243,3.0241,3.0246,3.0226,3.0243,3.0234,3.0239,3.0258,3.0258,3.0229,3.0231,3.0251,3.02,3.0228,3.0223,3.0199,3.0191,3.0184,3.0184,3.0286,0,0,0,0,0,3.0244,3.0228,3.0237,3.0203,3.0202,3.0214,3.0207,3.0219,3.0217,3.0216,3.0221,3.0219,3.0208,3.0199,3.0189,3.0152,3.0155,3.0135,3.0128,3.0123,3.0118,3.0102,3.0094,3.018,3.018,3.018,0,0,3.0215,3.0217,3.0206,3.0194,3.0194,3.0178,3.0213,3.0193,3.0183,3.0213,3.0189,3.0193,3.0192,3.0161,3.0148,3.0162,3.0096,3.0118,3.0114,3.0112,3.0098,3.0089,3.0082,3.0177,3.0178,3.0178,0,0,3.0153,3.0152,3.0126,3.0126,3.0125,3.0135,3.0129,3.0133,3.0137,3.0113,3.0137,3.0125,3.0104,3.0104,3.0101,3.0044,3.0062,3.0041,3.0005,2.9989,2.9983,2.9977,2.9958,2.9951,3.0037,3.0036,3.0036,0,3.0116,3.0092,3.011,3.009,3.0086,3.0115,3.0089,3.0088,3.0084,3.0081,3.0098,3.0075,3.0076,3.0047,3.0034,3.003,3.0025,3.004,2.9982,2.9976,2.9971,2.9954,2.9946,3.0034,3.0034,3.0034,3.0035,0,3.0048,3.0032,3.001,3.0007,3.0001,2.9978,2.9994,2.9986,3.0,3.0008,2.9986,2.999,2.9982,2.9977,2.9989,2.995,2.9959,2.9979,3.0007,2.996,2.9944,2.9937,3.003,3.0031,3.0032,3.0032,0,0,2.9954,2.9964,2.9956,2.9957,2.9961,2.9949,2.993,2.9923,2.9916,2.9914,2.9899,2.9883,2.9902,2.9899,2.9913,2.9899,2.9857,2.992,2.9921,2.9909,2.9816,2.9802,2.9793,2.987,2.9868,2.9867,2.9817,0,2.9894,2.986,2.9879,2.9843,2.983,2.9859,2.9843,2.9844,2.9853,2.9844,2.9854,2.9843,2.9868,2.9867,2.9855,2.9864,2.9838,2.9868,2.9857,2.9856,2.9855,2.9785,2.9768,2.972,2.9811,2.9809,2.9809,0,2.9819,2.9815,2.9779,2.9789,2.9784,2.9768,2.9766,2.9757,2.9761,2.9768,2.9767,2.9785,2.9769,2.9799,2.9778,2.9798,2.9795,2.98,2.9798,2.9797,2.9829,2.9782,2.9705,2.9698,2.9799,2.9799,2.98,0,2.9756,2.9742,2.9719,2.9718,2.9729,2.9718,2.9722,2.9727,2.9724,2.9722,2.972,2.9717,2.9715,2.9713,2.9731,2.975,2.9709,2.9739,2.9715,2.9715,2.9704,2.9704,2.9625,2.9702,2.9703,2.9703,2.9703,0,2.9687,2.9663,2.9691,2.9676,2.9652,2.9675,2.9651,2.9658,2.9664,2.9653,2.9679,2.9669,2.9693,2.9686,2.9701,2.9683,2.9681,2.9688,2.9692,2.9686,2.9685,2.9683,2.9687,2.9701,2.9701,2.9702,2.9702,0,2.9611,2.9628,2.9605,2.9619,2.9622,2.9603,2.9616,2.9604,2.9616,2.9603,2.9601,2.962,2.9613,2.9632,2.9627,2.9637,2.9612,2.9621,2.961,2.9613,2.9589,2.9591,2.9505,2.9496,2.9579,2.9578,2.9578,0,2.9565,2.9548,2.9561,2.9556,2.9559,2.955,2.9547,2.957,2.9566,2.9572,2.9561,2.9557,2.9554,2.9543,2.9557,2.9555,2.9565,2.9535,2.9564,2.9559,2.9565,2.9566,2.9565,2.9528,2.9527,2.9527,2.9526,0,2.9483,2.9494,2.9488,2.9487,2.9483,2.9483,2.9485,2.9479,2.9505,2.9499,2.9493,2.9492,2.9489,2.9485,2.9487,2.9493,2.9514,2.9517,2.9512,2.9504,2.9499,2.9502,2.9593,2.9518,2.9519,2.952,2.952,2.952,2.9421,2.9409,2.9417,2.9411,2.9416,2.9418,2.9409,2.9421,2.9416,2.9416,2.9431,2.9422,2.9431,2.9436,2.944,2.9435,2.9449,2.9441,2.9439,2.9436,2.9433,2.9501,2.9436,2.9436,2.9436,2.9436,2.9436,0,2.9341,2.9349,2.9344,2.9347,2.9343,2.9365,2.9369,2.9364,2.9357,2.9363,2.9361,2.9356,2.9354,2.9369,2.937,2.9363,2.9373,2.9362,2.9362,2.9364,2.942,2.9425,2.9354,2.9354,2.9354,2.9354,2.9354,2.9354,2.9299,2.928,2.9292,2.9277,2.9285,2.9278,2.9279,2.9282,2.9287,2.928,2.9279,2.9289,2.93,2.9302,2.9302,2.9307,2.9306,2.9292,2.93,2.9352,2.936,2.9367,2.9372,2.9292,2.9292,2.9245,2.9245,2.9244]},{"header":{"parameterUnit":"m.s-1","parameterCategory":1,"la1":30.2991,"la2":30.254,"lo1":-89.0895,"lo2":-89.0444,"dy":0.0017,"dx":0.0017,"nx":28,"ny":28,"refTime":"2023-04-30T15:00:00:Z","depth":0,"parameterNumber":3,"parameterNumberName":"V-component_of_WINDS"},"data":[0,0,0,0,0,0,0,0,0,0,0,0,0,0,0,0,0,0,0,0,0,0,0,0,0,0,0,0,0,0,0,0,0,0,0,0,0,0,0,0,0,0,0,0,0,0,0,0,0,0,0,0,0,0,0,0,0,0,2.061,2.0612,0,2.0733,2.0734,2.0736,2.0764,2.0763,2.0762,2.0761,2.0883,2.0887,2.0891,0,0,0,0,0,0,0,0,0,0,0,0,0,2.0393,2.0397,2.061,2.0612,2.0613,2.0733,2.0734,2.0736,2.0764,2.0763,2.0762,2.0761,2.0881,2.0886,2.0891,0,0,0,0,0,0,0,0,0,0,0,0,0,2.0498,2.0398,2.061,2.0641,2.0646,2.0732,2.0735,2.0737,2.0764,2.0763,2.0761,2.076,2.088,2.0886,2.0892,2.0955,0,0,2.091,2.0913,0,0,0,0,0,0,0,0,2.0492,2.0506,2.0635,2.0639,2.0644,2.0732,2.0702,2.081,2.0764,2.0719,2.0761,2.0759,2.0833,2.0843,2.0869,2.096,2.0966,2.0911,2.0914,2.0917,2.0919,0,0,0,0,0,0,0,2.0485,2.0501,2.0659,2.0637,2.0643,2.0647,2.0661,2.0723,2.0782,2.0723,2.0725,2.0739,2.0835,2.0863,2.0872,2.0967,2.091,2.0916,2.092,2.0922,2.1111,2.1113,0,0,0,0,0,0,2.0473,2.0495,2.0655,2.0662,2.0564,2.0652,2.0667,2.0705,2.0781,2.0791,2.074,2.074,2.0853,2.0865,2.0876,2.0952,2.0917,2.0923,2.0926,2.111,2.1112,2.1113,0,0,0,0,0,0,2.0468,2.0487,2.065,2.0579,2.06,2.0657,2.0699,2.0708,2.0736,2.0794,2.0804,2.0758,2.0853,2.0868,2.0934,2.0957,2.0925,2.0931,2.1108,2.1111,2.1112,2.1106,0,0,0,0,0,0,2.0462,2.0485,2.0512,2.058,2.0604,2.0708,2.0701,2.0711,2.0746,2.0747,2.0814,2.0823,2.0853,2.0925,2.094,2.0964,2.0936,2.1107,2.1109,2.1112,2.1104,2.1107,2.111,0,0,0,0,0,2.0454,2.0505,2.0513,2.0532,2.0639,2.0709,2.0723,2.0757,2.0748,2.0774,2.0811,2.0821,2.0952,2.0931,2.0949,2.0975,2.1105,2.1109,2.1112,2.1103,2.1107,2.111,0,0,0,0,0,0,2.0437,2.0515,2.0524,2.0599,2.0647,2.0714,2.0747,2.076,2.0811,2.081,2.0848,2.0863,2.0926,2.0958,2.0934,2.1038,2.1028,2.1035,2.1015,2.1019,2.1022,2.1013,2.0941,0,0,0,0,0,2.0443,2.0495,2.0559,2.0619,2.0642,2.069,2.0723,2.0744,2.0795,2.0816,2.0858,2.0905,2.0957,2.099,2.1041,2.1108,2.1121,2.1135,2.1138,2.114,2.1145,2.1179,2.1185,2.1124,2.1124,2.1124,0,0,2.0454,2.0502,2.0533,2.0616,2.0657,2.0707,2.0708,2.0763,2.08,2.0824,2.0889,2.0921,2.0976,2.1042,2.1074,2.107,2.1164,2.1144,2.1145,2.1149,2.1183,2.1188,2.1193,2.1126,2.1125,2.1125,0,0,2.0499,2.0543,2.0596,2.0635,2.0696,2.0727,2.0739,2.0803,2.0825,2.0891,2.0909,2.0952,2.1041,2.1079,2.1109,2.1165,2.1175,2.118,2.1195,2.1228,2.1233,2.1237,2.1254,2.126,2.1185,2.1185,2.1185,0,2.0505,2.0585,2.0621,2.0674,2.0709,2.0732,2.0784,2.082,2.0893,2.0915,2.0911,2.102,2.1059,2.1133,2.1146,2.1171,2.1184,2.1173,2.1229,2.1234,2.1239,2.1255,2.1262,2.1185,2.1185,2.1185,2.1185,0,2.0587,2.0642,2.0677,2.0747,2.0785,2.0838,2.0879,2.0913,2.093,2.096,2.1024,2.1072,2.1131,2.115,2.1168,2.1225,2.122,2.1222,2.1213,2.1244,2.126,2.1267,2.1185,2.1185,2.1185,2.1185,0,0,2.0628,2.0715,2.0727,2.0758,2.0824,2.0866,2.0917,2.0976,2.1002,2.1051,2.1093,2.1166,2.1166,2.1201,2.1223,2.1252,2.1288,2.1249,2.1251,2.1253,2.135,2.1347,2.1354,2.1295,2.1297,2.1298,2.1345,0,2.068,2.0775,2.0807,2.0884,2.0932,2.0954,2.0998,2.1042,2.107,2.1114,2.1145,2.1195,2.1194,2.1214,2.1244,2.1278,2.1308,2.1275,2.1332,2.1334,2.1317,2.1363,2.1362,2.1404,2.1351,2.1353,2.1353,0,2.0754,2.0804,2.0886,2.0943,2.0964,2.1004,2.1058,2.11,2.1149,2.1167,2.1204,2.1223,2.1274,2.1261,2.133,2.1307,2.1332,2.1351,2.1354,2.136,2.1345,2.1368,2.1418,2.1424,2.1364,2.1363,2.1362,0,2.0772,2.0859,2.0919,2.0944,2.1014,2.104,2.107,2.1117,2.1149,2.1195,2.1215,2.1267,2.1294,2.1332,2.1362,2.1351,2.1427,2.1418,2.1442,2.1441,2.1457,2.1455,2.1509,2.1475,2.1475,2.1475,2.1474,0,2.0826,2.0875,2.0927,2.0964,2.1018,2.1052,2.1104,2.1134,2.1176,2.1216,2.1237,2.1274,2.1313,2.1354,2.1378,2.1429,2.1442,2.1456,2.1462,2.1454,2.1452,2.147,2.1468,2.1476,2.1476,2.1476,2.1475,0,2.0855,2.0893,2.0959,2.1018,2.1033,2.107,2.112,2.1154,2.1183,2.1233,2.1247,2.1292,2.1341,2.1375,2.1438,2.1454,2.1509,2.1515,2.1492,2.1495,2.1515,2.1512,2.1583,2.1592,2.1552,2.1553,2.1553,0,2.0887,2.0924,2.0987,2.1016,2.1046,2.1093,2.1125,2.1159,2.1191,2.1247,2.1274,2.1325,2.1367,2.1444,2.148,2.1527,2.1534,2.1555,2.1541,2.153,2.1531,2.1528,2.1531,2.1557,2.1557,2.1557,2.1557,0,2.0937,2.0953,2.1,2.1052,2.1089,2.1132,2.1174,2.1196,2.1237,2.1271,2.1322,2.1355,2.1418,2.1467,2.1517,2.1545,2.1557,2.1561,2.1569,2.1561,2.1545,2.1552,2.1496,2.156,2.1559,2.1559,2.1559,2.1559,2.0967,2.1,2.1049,2.1099,2.1134,2.1172,2.1207,2.1239,2.1283,2.1338,2.1355,2.1407,2.145,2.1519,2.1547,2.1586,2.1584,2.1596,2.1599,2.1601,2.1599,2.154,2.1595,2.1595,2.1595,2.1595,2.1595,0,2.1017,2.1048,2.1094,2.1152,2.119,2.12,2.1246,2.1276,2.1322,2.1363,2.1404,2.146,2.1506,2.1546,2.1593,2.1616,2.1623,2.1627,2.1625,2.1631,2.1599,2.1587,2.1621,2.1621,2.1621,2.1621,2.1621,2.1621,2.1047,2.1103,2.1124,2.1196,2.1227,2.1279,2.1304,2.1338,2.137,2.1433,2.1472,2.1497,2.1536,2.1586,2.1628,2.1638,2.1653,2.1657,2.1667,2.1637,2.1634,2.1631,2.1619,2.166,2.166,2.1696,2.1696,2.1697]}]]